Powrót do katalogu

STARLINK-31258

AktywnyŁącznośćVLEO
NORAD 58829·PAYLOAD·🇺🇸 United States

Wystrzelony Jan 24, 2024 z Vandenberg Space Force Base

Loading…

Następne Przeloty (najbliższe 24 godziny)

TLE

ŚwieżeSource: CelesTrak SupGP

Epoka: Sep 14, 2026, 20:42 UTC

1 58829C 24017D   26257.86298611  .00025453  00000+0  75228-3 0  2571
2 58829  53.1591  43.7639 0001199  84.0005 354.2704 15.34366282    13

Śledź STARLINK-31258 w czasie rzeczywistym z AllMySat

Download on the App Store